CW3151 Weather Reports


time (UTC)temp
C
wind
direction
speed
KPH
gust
KPH
rain 1hr
cm
rain 24hr
cm
rain mn
cm
humidity
%
barometer
mb
20260505111816 9 330 0.0 0.0 0.00 0.00 0.00 76 1016.9
20260505110315 10 330 0.0 0.0 0.00 0.00 0.00 74 1016.9
20260505101815 11 330 0.0 0.0 0.00 0.00 0.00 69 1016.8
20260505100340 11 330 0.0 0.0 0.00 0.00 0.00 66 1016.8
20260505094818 11 330 0.0 0.0 0.00 0.00 0.00 65 1016.7
20260505093321 12 330 0.0 0.0 0.00 0.00 0.00 65 1016.7
20260505091819 12 330 0.0 0.0 0.00 0.00 0.00 60 1016.7
20260505090322 13 330 0.0 1.6 0.00 0.00 0.00 59 1016.7
20260505084820 13 330 0.0 3.2 0.00 0.00 0.00 58 1016.6
20260505083324 13 330 0.0 1.6 0.00 0.00 0.00 57 1016.3
20260505081844 13 330 0.0 1.6 0.00 0.00 0.00 57 1016.3
20260505080322 13 330 0.0 3.2 0.00 0.00 0.00 58 1016.2
20260505074823 13 330 0.0 1.6 0.00 0.00 0.00 59 1016.1
20260505073322 13 330 0.0 3.2 0.00 0.00 0.00 59 1016.1
20260505071824 13 330 1.6 4.8 0.00 0.00 0.00 58 1016.3
20260505070324 13 67 0.0 1.6 0.00 0.00 0.00 63 1016.3
20260505064826 13 67 0.0 1.6 0.00 0.00 0.00 62 1016.4
20260505063325 13 67 0.0 1.6 0.00 0.00 0.00 62 1016.6
20260505061827 13 67 0.0 1.6 0.00 0.00 0.00 63 1016.7
20260505060326 13 67 0.0 1.6 0.00 0.00 0.00 66 1016.7
20260505054825 13 67 0.0 1.6 0.00 0.00 0.00 65 1016.8
20260505053328 13 67 0.0 0.0 0.00 0.00 0.00 66 1016.7
20260505051826 13 67 0.0 3.2 0.00 0.00 0.00 66 1016.7
20260505050331 13 67 0.0 0.0 0.00 0.00 0.00 65 1016.9
20260505040333 12 67 0.0 1.6 0.00 0.00 0.00 68 1016.9
20260505034830 12 67 0.0 0.0 0.00 0.00 0.00 69 1017.0
20260505033312 12 67 0.0 0.0 0.00 0.00 0.00 69 1017.1
20260505031830 13 67 0.0 0.0 0.00 0.00 0.00 68 1017.1
20260505030314 13 67 0.0 0.0 0.00 0.00 0.00 65 1017.1
20260505024833 13 67 0.0 0.0 0.00 0.00 0.00 64 1017.1
20260505023311 14 67 0.0 0.0 0.00 0.00 0.00 63 1017.1
20260505021813 15 67 0.0 0.0 0.00 0.00 0.00 60 1017.1
20260505020313 15 67 0.0 0.0 0.00 0.00 0.00 58 1016.9
20260505014816 15 67 0.0 0.0 0.00 0.00 0.00 55 1016.8
20260505013313 16 67 0.0 1.6 0.00 0.00 0.00 54 1016.7
20260505011815 16 67 0.0 0.0 0.00 0.00 0.00 54 1016.5
20260505010315 16 67 0.0 0.0 0.00 0.00 0.00 53 1016.4
20260505004817 16 67 0.0 0.0 0.00 0.00 0.00 52 1016.3
20260505003316 17 67 0.0 0.0 0.00 0.00 0.00 52 1016.2
20260505001819 17 67 0.0 1.6 0.00 0.00 0.00 51 1016.1
20260505000318 18 67 0.0 1.6 0.00 0.00 0.00 50 1016.0
20260504234816 18 67 0.0 3.2 0.00 0.00 0.00 50 1015.9
20260504233320 18 67 0.0 3.2 0.00 0.00 0.00 50 1015.8
20260504231817 18 67 0.0 1.6 0.00 0.00 0.00 49 1015.8
20260504230320 19 71 0.0 3.2 0.00 0.00 0.00 49 1015.5
20260504224817 20 85 0.0 3.2 0.00 0.00 0.00 47 1015.4
20260504223321 20 85 0.0 3.2 0.00 0.00 0.00 44 1015.5
20260504221841 20 85 1.6 3.2 0.00 0.00 0.00 43 1015.4
20260504220324 20 85 0.0 3.2 0.00 0.00 0.00 43 1015.5
20260504214821 21 80 0.0 4.8 0.00 0.00 0.00 43 1015.4
20260504213324 21 109 1.6 3.2 0.00 0.00 0.00 42 1015.4
20260504211821 21 109 0.0 4.8 0.00 0.00 0.00 42 1015.4
20260504210319 21 109 3.2 4.8 0.00 0.00 0.00 39 1015.4
20260504204821 21 166 0.0 3.2 0.00 0.00 0.00 38 1015.5
20260504203320 21 157 0.0 3.2 0.00 0.00 0.00 36 1015.7
20260504201822 21 157 1.6 3.2 0.00 0.00 0.00 37 1015.9
20260504200320 21 159 1.6 3.2 0.00 0.00 0.00 36 1015.9
20260504194822 21 111 1.6 3.2 0.00 0.00 0.00 37 1016.2
20260504193320 21 111 0.0 4.8 0.00 0.00 0.00 36 1016.3
20260504191821 21 111 0.0 3.2 0.00 0.00 0.00 36 1016.4
20260504190321 21 142 1.6 4.8 0.00 0.00 0.00 38 1016.5
20260504184823 21 145 1.6 4.8 0.00 0.00 0.00 36 1016.7
20260504183322 22 235 0.0 3.2 0.00 0.00 0.00 31 1016.9
20260504181839 21 310 0.0 1.6 0.00 0.00 0.00 31 1016.9
20260504180322 21 308 0.0 3.2 0.00 0.00 0.00 32 1017.1
20260504174819 21 92 0.0 4.8 0.00 0.00 0.00 30 1017.3
20260504173323 21 85 0.0 1.6 0.00 0.00 0.00 31 1017.4
20260504171821 22 94 1.6 4.8 0.00 0.00 0.00 34 1017.5
20260504170323 22 308 0.0 3.2 0.00 0.00 0.00 32 1017.5
20260504160320 17 10 1.6 3.2 0.00 0.00 0.00 44 1018.5
20260504150319 15 40 0.0 3.2 0.00 0.00 0.00 47 1019.0
20260504140319 12 81 1.6 3.2 0.00 0.00 0.00 61 1019.2
20260504130320 8 80 0.0 0.0 0.00 0.00 0.00 81 1019.1